Location: Bottenau
(48.5138°N, 8.0462°E)
Time: 05:27:50
(UTC+00:00)

Spot 2 Rocket - Pass Details

Date: 18 April 2021
Orbit: 756 x 773 km, 98.5° (Epoch: 09 May)

Event Time Altitude Azimuth Distance (km) Brightness Sun altitude
Exits shadow 19:41:32 17° 114° (ESE) 1,859 4.9 -12.4°
Maximum altitude 19:44:35 31° 64° (ENE) 1,321 4.5 -12.9°
Drops below altitude 10° 19:49:01 10° 3° (N) 2,312 6.4 -13.5°
Sets 19:51:32 0° 353° (N) 3,240 7.4 -13.8°
